Weather History for Memphis, TN

Change the Weather History Date:

Saturday, February 9, 2013

  Actual Average Record
Temperature  
Mean Temperature 42 °F 44 °F  
Max Temperature 51 °F 53 °F 77 °F (1957)
Min Temperature 32 °F 35 °F 6 °F (1899)
Degree Days  
Heating Degree Days 23 21  
Month to date heating degree days 168 197  
Since 1 July heating degree days 1819 2099  
Cooling Degree Days 0 0  
Month to date cooling degree days 0 0  
Year to date cooling degree days 9 1  
Moisture  
Dew Point 32 °F    
Average Humidity 67    
Maximum Humidity 85    
Minimum Humidity 48    
Precipitation  
Precipitation 0.01 in 0.15 in 2.26 in (1939)
Month to date precipitation 0.30 1.37  
Year to date precipitation 10.02 5.35  
Snow  
Snow 0.00 in 0.00 in 3.10 in (2011)
Month to date snowfall 0.0 0.5  
Since 1 July snowfall 0.9 2.6  
Snow Depth 0.00 in    
Sea Level Pressure  
Sea Level Pressure 30.21 in    
Wind  
Wind Speed 8 mph (East)    
Max Wind Speed 16 mph    
Max Gust Speed 20 mph    
Visibility 10 miles    
Events Rain    
T = Trace of Precipitation, MM = Missing Value Source: NWS Daily Summary

Daily Weather History Graph

Daily Weather History Graph

Search for Another Location

Airport:

Trip Planner

Search our weather history database for the weather conditions in past years. The results will help you decide how hot, cold, wet, or windy it might be!

Date:

Astronomy

Feb. 09, 2013 Rise Set
Actual Time 6:51 AM CST 5:37 PM CST
Civil Twilight 6:25 AM CST 6:03 PM CST
Nautical Twilight 5:55 AM CST 6:33 PM CST
Astronomical Twilight 5:26 AM CST 7:02 PM CST
Moon 6:03 AM CST (2/9) 5:18 PM CST (2/9)
Length of Visible Light 11h 37m
Length of Day
10h 45m
Waning Crescent, 0% of the Moon is Illuminated
Feb 9
Waning Crescent
Feb 10
New
Feb 17
First Quarter
Feb 25
Full
Mar 4
Last Quarter

Hourly Weather History & Observations

Time (CST) Temp. Windchill Dew Point Humidity Pressure Visibility Wind Dir Wind Speed Gust Speed Precip Events Conditions
12:54 AM 36.0 °F 29.6 °F 30.0 °F 79% 30.28 in 9.0 mi NE 8.1 mph - N/A   Scattered Clouds
1:54 AM 36.0 °F 28.5 °F 30.0 °F 79% 30.28 in 10.0 mi ENE 10.4 mph - N/A   Mostly Cloudy
2:54 AM 36.0 °F 29.6 °F 30.0 °F 79% 30.29 in 9.0 mi East 8.1 mph - N/A   Partly Cloudy
3:54 AM 35.1 °F 28.6 °F 28.9 °F 78% 30.31 in 9.0 mi NE 8.1 mph - N/A   Partly Cloudy
4:54 AM 34.0 °F 29.8 °F 28.9 °F 82% 30.32 in 9.0 mi NE 4.6 mph - N/A   Partly Cloudy
5:54 AM 33.1 °F 26.1 °F 28.9 °F 85% 30.32 in 9.0 mi ENE 8.1 mph - N/A   Clear
6:54 AM 32.0 °F 24.8 °F 28.9 °F 88% 30.31 in 8.0 mi ENE 8.1 mph - N/A   Scattered Clouds
7:54 AM 34.0 °F 26.6 °F 28.9 °F 82% 30.32 in 8.0 mi ENE 9.2 mph - N/A   Overcast
8:54 AM 37.0 °F 28.9 °F 28.9 °F 73% 30.32 in 9.0 mi East 12.7 mph - N/A   Mostly Cloudy
9:54 AM 39.0 °F 33.4 °F 30.0 °F 70% 30.32 in 10.0 mi East 8.1 mph - N/A   Mostly Cloudy
10:54 AM 44.1 °F 39.0 °F 30.9 °F 60% 30.31 in 8.0 mi East 9.2 mph - N/A   Mostly Cloudy
11:54 AM 45.0 °F 39.7 °F 32.0 °F 60% 30.27 in 10.0 mi ESE 10.4 mph - N/A   Mostly Cloudy
12:54 PM 48.0 °F - 32.0 °F 54% 30.23 in 10.0 mi East 6.9 mph - N/A   Mostly Cloudy
1:54 PM 48.9 °F - 32.0 °F 52% 30.19 in 10.0 mi East 8.1 mph - N/A   Mostly Cloudy
2:54 PM 50.0 °F - 32.0 °F 50% 30.17 in 10.0 mi East 9.2 mph - N/A   Overcast
3:54 PM 51.1 °F - 32.0 °F 48% 30.15 in 10.0 mi ESE 8.1 mph - N/A   Overcast
4:54 PM 51.1 °F - 33.1 °F 50% 30.12 in 10.0 mi East 9.2 mph - N/A   Overcast
5:54 PM 50.0 °F - 33.1 °F 52% 30.12 in 10.0 mi East 6.9 mph - N/A   Overcast
6:54 PM 48.9 °F - 33.1 °F 54% 30.12 in 10.0 mi East 3.5 mph - N/A   Overcast
7:54 PM 48.9 °F - 34.0 °F 56% 30.10 in 10.0 mi ESE 3.5 mph - N/A   Overcast
8:54 PM 51.1 °F - 33.1 °F 50% 30.09 in 10.0 mi SE 3.5 mph - N/A   Overcast
9:54 PM 51.1 °F - 35.1 °F 54% 30.09 in 10.0 mi SSE 5.8 mph - 0.00 in Rain Light Rain
10:54 PM 50.0 °F - 37.9 °F 63% 30.05 in 10.0 mi SE 11.5 mph - 0.01 in Rain Light Rain
11:54 PM 51.1 °F - 37.0 °F 59% 30.04 in 10.0 mi SSE 11.5 mph - 0.00 in   Mostly Cloudy